Terminal Aerodrome Forecast
Issued by NWS Cleveland, OH

Home | Current Version | Previous Version | Text Only | Print | Product List | Glossary Off
Versions: 1 2 3 4 5 6 7 8 9 10 11 12 13 14 15 16 17 18

000
FTUS41 KCLE 290824 AAA
TAFERI
TAF AMD
KERI 290824Z 2908/3006 28008KT P6SM OVC090
      TEMPO 2909/2913 -SHRA
     FM291500 27007KT P6SM OVC250
     FM300000 16005KT P6SM -SHRA OVC100
     FM300300 13005KT 5SM -SHRA OVC050
     FM300500 13005KT 2SM -SHRA BR OVC025=

USA.gov is the U.S. government's official web portal to all federal, state and local government web resources and services.